CAPE
0 0 0 0 8 331 770 957 834 695 857 963 826 824 1006 1206 905 913 1393 1424 1104 1002 1195 1148 1004 699 446 329 486 657 956 1141 986 853 780 945 1126 1131 957 951 749 799 941
0 0 0 0 0 31 279 795 950 1060 1141 1081 899 912 970 1244 1356 1110 1102 1228 1319 1101 1195 1212 1056 730 388 210 276 550 896 1094 1058 762 705 919 1148 1137 986 1051 806 960 988
0 0 0 0 0 33 316 713 1105 1281 1394 1228 1063 1012 1000 1219 1453 1498 1503 1583 1709 1445 1405 1334 1161 801 444 228 186 326 726 1021 1018 1064 1032 687 763 1173 828 760 763 974 906
0 0 0 0 4 48 358 911 1323 1476 1416 1418 1303 1198 998 1147 1362 1462 1640 1843 2018 1898 1650 1665 1365 900 521 308 150 130 521 767 1009 1144 638 1077 621 869 1118 847 792 772 800
182 14 5 18 20 34 254 795 1243 1498 1475 1503 1536 1394 1202 1241 1313 1425 1620 1842 2221 2009 1755 2009 1742 954 604 448 219 65 140 462 662 676 1119 1345 734 824 774 879 910 813 972
1047 373 40 59 68 72 144 433 993 1329 1473 1531 1647 1577 1465 1527 1528 1608 1711 1973 2105 1961 1877 2187 2224 1666 985 683 425 237 150 166 114 72 262 1352 1008 1066 716 715 1122 912 798
1159 669 239 212 256 212 135 197 467 992 1331 1524 1674 1794 1818 1847 1854 1780 1797 1942 2006 1971 2082 2140 1923 1349 1094 884 648 461 331 281 233 230 483 1235 1239 1357 903 756 1169 1144 870
1151 744 488 572 561 456 355 265 271 401 735 1123 1494 1625 1681 1771 1755 1692 1730 1935 2003 1939 1975 1909 1888 1512 1059 850 695 547 429 309 185 70 342 853 1503 1512 1096 709 871 1145 1042
859 530 467 557 498 464 446 481 509 579 697 840 1036 1216 1381 1543 1613 1618 1611 1637 1673 1702 1689 1684 1723 1648 1778 1583 1364 1093 833 594 335 99 211 1113 1495 1216 878 619 873 910 1121
806 508 456 384 370 336 365 488 593 607 761 965 1032 957 1066 1320 1222 1245 1196 1230 1243 1307 1356 1371 1373 1380 1576 1672 1582 1419 1266 1035 819 596 708 1102 1381 1086 675 607 660 962 1165
872 658 438 341 320 236 252 361 355 375 459 638 686 849 1062 1227 1329 1284 1329 1435 1359 1373 1440 1350 1371 1316 1245 1197 1106 1119 1105 958 1025 1107 1233 1174 1246 851 664 511 467 543 843
1091 1011 673 627 464 216 161 73 116 251 401 648 660 722 814 759 879 906 864 1027 1158 1187 1233 1212 1272 1263 1245 1252 1350 1545 1379 1439 1404 1413 1478 1187 1058 1356 1329 1359 1193 1078 908
917 948 1055 876 649 513 310 332 404 494 501 432 597 614 449 392 385 346 309 332 439 631 789 972 1088 1160 1341 1455 1543 1513 1405 1374 1246 750 941 1105 819 999 827 744 884 1048 1143
826 835 862 785 759 761 483 568 568 459 230 71 124 226 125 27 30 24 59 13 0 0 43 115 332 349 389 476 585 694 876 619 347 511 543 69 36 202 292 400 319 281 422
581 515 695 613 541 65 110 78 46 39 26 0 0 0 91 0 0 0 0 0 0 0 0 0 0 0 53 90 169 195 177 2 0 0 131 0 54 161 227 207 96 35 26
214 210 75 55 3 0 0 0 0 0 0 0 0 0 0 0 0 0 0 0 0 0 0 0 0 0 0 0 0 0 0 0 0 0 0 0 0 0 0 2 2 1 9
16 0 0 0 0 0 0 0 0 0 0 0 0 0 0 0 0 0 0 0 0 0 0 0 0 0 0 0 0 0 0 0 0 0 0 0 0 0 0 1 2 1 6
0 0 0 0 0 0 0 0 0 0 0 0 0 0 0 0 0 0 0 0 0 0 0 0 0 0 0 0 0 0 0 0 0 0 0 0 0 0 0 0 1 0 2
0 0 0 0 0 0 0 0 0 0 0 0 0 0 0 0 0 0 0 0 0 0 0 0 0 0 0 0 0 0 0 0 0 0 0 0 0 0 0 0 0 0 0
0 0 0 0 0 0 0 0 0 0 0 0 0 0 0 0 0 0 0 0 0 0 0 0 0 0 0 0 0 0 0 0 0 0 0 0 0 0 0 0 0 0 0
0 0 0 0 0 0 0 0 0 0 0 0 0 0 0 0 0 0 0 0 0 0 0 0 0 0 0 0 0 0 0 0 0 0 0 0 0 0 0 0 0 0 0
0 0 0 0 0 0 0 0 0 0 0 0 0 0 0 0 0 0 0 0 0 0 0 0 0 0 0 0 0 0 0 0 0 0 0 0 0 0 0 0 0 0 0
0 0 0 0 0 0 0 0 0 0 0 0 0 0 0 0 0 0 0 0 0 0 0 0 0 0 0 0 0 0 0 0 0 0 0 0 0 0 0 0 0 0 0
0 0 0 0 0 0 0 0 0 0 0 0 0 0 0 0 0 0 0 0 0 0 0 0 0 0 0 0 0 0 0 0 0 0 0 0 0 0 0 0 0 0 0
0 0 0 0 0 0 0 0 0 0 0 0 0 0 0 0 0 0 0 0 0 0 0 0 0 0 0 0 0 0 0 0 0 0 0 0 0 0 0 0 0 0 0
0 0 0 0 0 0 0 0 0 0 0 0 0 0 0 0 0 0 0 0 0 0 0 0 0 0 0 0 0 0 0 0 0 0 0 0 0 0 0 0 0 0 0
CIN
0 0 0 0 -291 -434 -354 -308 -308 -321 -278 -250 -243 -240 -204 -168 -191 -180 -118 -108 -139 -132 -90 -84 -91 -122 -163 -179 -135 -101 -69 -50 -59 -75 -75 -64 -46 -43 -54 -44 -53 -42 -21
0 0 0 0 0 -514 -408 -324 -291 -263 -239 -243 -251 -239 -218 -171 -136 -159 -154 -133 -106 -122 -98 -87 -98 -125 -179 -218 -196 -127 -82 -49 -61 -81 -72 -53 -43 -32 -42 -31 -57 -38 -24
0 0 0 0 0 -496 -395 -316 -252 -225 -197 -206 -215 -218 -203 -182 -131 -106 -107 -94 -67 -88 -81 -88 -99 -131 -172 -209 -209 -171 -101 -54 -67 -40 -82 -104 -57 -35 -53 -58 -60 -34 -36
0 0 0 0 -426 -471 -370 -290 -217 -185 -179 -168 -167 -179 -202 -184 -150 -125 -92 -71 -37 -38 -55 -54 -81 -126 -174 -195 -216 -195 -126 -75 -74 -42 -91 -69 -63 -67 -45 -61 -68 -63 -60
-554 -534 -480 -609 -581 -501 -362 -273 -215 -173 -168 -150 -138 -141 -174 -167 -153 -132 -98 -73 -25 -34 -44 -19 -45 -119 -160 -175 -194 -210 -192 -135 -86 -97 -43 -26 -57 -78 -75 -68 -61 -69 -53
-379 -517 -675 -583 -523 -488 -407 -307 -226 -173 -150 -139 -113 -106 -127 -123 -124 -102 -91 -54 -39 -41 -40 -7 -9 -57 -119 -147 -171 -182 -181 -205 -209 -188 -99 -10 -52 -61 -76 -92 -58 -76 -71
-353 -432 -536 -524 -444 -415 -418 -353 -295 -210 -151 -122 -95 -74 -81 -77 -76 -80 -73 -53 -42 -43 -26 -15 -28 -78 -110 -126 -152 -161 -160 -170 -166 -144 -79 -20 -60 -57 -61 -79 -57 -53 -71
-330 -397 -434 -374 -334 -331 -331 -341 -333 -297 -227 -156 -99 -80 -82 -66 -63 -65 -57 -39 -31 -41 -34 -35 -36 -62 -101 -122 -140 -154 -160 -165 -155 -164 -94 -42 -36 -46 -51 -82 -79 -65 -66
-347 -423 -407 -344 -342 -348 -324 -285 -275 -249 -224 -195 -159 -126 -100 -70 -59 -58 -53 -47 -36 -35 -46 -43 -39 -43 -36 -58 -69 -99 -123 -135 -142 -160 -127 -49 -18 -24 -39 -68 -73 -78 -65
-308 -393 -390 -377 -371 -365 -338 -278 -246 -238 -202 -163 -153 -166 -153 -96 -103 -86 -85 -77 -67 -50 -48 -50 -56 -56 -41 -41 -53 -58 -78 -98 -106 -109 -95 -60 -21 -35 -55 -59 -76 -66 -56
-277 -322 -366 -384 -369 -380 -360 -302 -304 -296 -264 -228 -221 -183 -145 -114 -73 -71 -69 -37 -34 -31 -21 -28 -34 -46 -57 -57 -69 -74 -80 -94 -95 -82 -60 -52 -33 -38 -52 -74 -82 -86 -61
-221 -213 -271 -284 -303 -356 -373 -427 -404 -342 -287 -218 -210 -198 -165 -169 -141 -125 -118 -78 -43 -31 -24 -18 -13 -21 -30 -36 -35 -22 -40 -42 -43 -26 -22 -26 -22 -10 -14 -22 -20 -29 -33
-203 -197 -184 -199 -232 -266 -312 -303 -275 -250 -246 -248 -207 -200 -243 -267 -252 -249 -231 -193 -139 -68 -38 -23 -22 -15 -9 -11 -8 -10 -17 -14 -11 -33 -34 -24 -7 -9 -22 -33 -24 -21 -17
-208 -197 -187 -195 -186 -193 -220 -227 -223 -242 -340 -399 -352 -306 -341 -376 -419 -347 -312 -325 0 0 -219 -154 -86 -62 -59 -31 -20 -13 -8 -18 -28 -22 -34 -117 -128 -86 -85 -66 -76 -90 -70
-239 -250 -204 -204 -201 -390 -380 -224 -241 -248 -273 0 0 0 -338 0 0 0 0 -13 0 0 0 0 0 0 -132 -102 -78 -53 -66 -41 0 0 -69 0 -144 -127 -92 -96 -158 -226 -247
-344 -333 -380 -391 -72 0 0 0 0 0 0 0 0 0 0 0 0 0 0 0 0 0 0 0 0 0 0 0 0 0 0 0 0 0 0 0 0 0 0 0 0 0 0
-442 -11 0 0 0 0 0 0 0 0 0 0 0 0 0 0 0 0 0 0 0 0 0 0 0 0 0 0 0 0 0 0 0 0 0 0 0 0 0 0 0 0 0
0 0 0 0 0 0 0 0 0 0 0 0 0 0 0 0 0 0 0 0 0 0 0 0 0 0 0 0 0 0 0 0 0 0 0 0 0 0 0 0 0 -2 0
0 0 0 0 0 0 0 0 0 0 0 0 0 0 0 0 0 0 0 0 0 0 0 0 0 0 0 0 0 0 0 0 0 0 0 0 0 0 0 0 0 0 0
0 0 0 0 0 0 0 0 0 0 0 0 0 0 0 0 0 0 0 0 0 0 0 0 0 0 0 0 0 0 0 0 0 0 0 0 0 0 0 0 0 0 0
0 0 0 0 0 0 0 0 0 0 0 0 0 0 0 0 0 0 0 0 0 0 0 0 0 0 0 0 0 0 0 0 0 0 0 0 0 0 0 0 0 0 0
0 0 0 0 0 0 0 0 0 0 0 0 0 0 0 0 0 0 0 0 0 0 0 0 0 0 0 0 0 0 0 0 0 0 0 0 0 0 0 0 0 0 0
0 0 0 0 0 0 0 0 0 0 0 0 0 0 0 0 0 0 0 0 0 0 0 0 0 0 0 0 0 0 0 0 0 0 0 0 0 0 0 0 0 0 0
0 0 0 0 0 0 0 0 0 0 0 0 0 0 0 0 0 0 0 0 0 0 0 0 0 0 0 0 0 0 0 0 0 0 0 0 0 0 0 0 0 0 0
0 0 0 0 0 0 0 0 0 0 0 0 0 0 0 0 0 0 0 0 0 0 0 0 0 0 0 0 0 0 0 0 0 0 0 0 0 0 0 0 0 0 0
0 0 0 0 0 0 0 0 0 0 0 0 0 0 0 0 0 0 0 0 0 0 0 0 0 0 0 0 0 0 0 0 0 0 0 0 0 0 0 0 0 0 0
Wind_Speed
16 17 16 16 16 16 15 15 15 15 16 16 17 19 19 20 20 20 19 20 20 20 21 21 21 21 21 21 21 21 21 21 21 22 21 21 21 21 19 20 21 22 22
17 16 15 15 15 14 14 14 14 13 14 14 15 16 18 18 18 18 18 18 18 19 19 20 20 20 20 21 21 20 20 20 21 22 22 21 21 20 17 21 21 21 21
15 14 14 14 13 13 14 14 14 13 13 14 14 15 16 17 17 17 17 17 17 17 18 18 18 19 20 20 20 20 20 20 21 23 22 22 21 20 20 20 21 20 20
13 12 11 12 12 12 13 13 13 13 13 12 13 13 14 15 15 15 15 16 16 16 16 16 17 17 18 18 18 18 18 17 17 20 15 18 20 20 19 19 19 19 20
10 10 10 10 11 11 11 12 12 12 12 11 11 12 12 13 13 13 14 14 14 15 15 15 15 16 16 16 17 17 16 17 16 13 14 16 17 18 19 18 18 18 18
10 10 10 9 10 10 10 10 10 11 11 11 10 10 11 11 11 12 12 12 13 13 13 14 14 14 15 15 16 17 17 16 17 17 16 10 15 15 16 16 16 16 17
10 9 9 9 9 9 9 9 10 10 10 10 9 9 10 10 10 10 10 11 11 11 12 13 13 13 14 14 15 16 18 19 18 18 17 10 12 14 14 14 14 15 15
9 8 7 8 8 8 8 8 8 9 9 9 9 9 9 9 9 9 9 9 9 10 11 12 12 13 14 15 15 16 18 20 21 20 18 11 10 11 13 13 13 13 12
8 7 6 7 7 7 7 7 7 8 8 8 8 8 8 8 8 8 8 8 8 8 9 10 12 14 13 13 16 17 18 21 22 23 21 18 10 9 11 11 11 10 10
6 6 6 5 6 6 6 6 6 7 7 7 7 8 8 8 8 8 8 8 8 10 11 11 12 14 14 15 16 20 20 21 22 25 24 18 8 8 9 10 10 10 9
5 4 5 5 5 5 6 6 6 6 7 7 7 7 8 10 6 10 12 11 12 11 12 14 15 17 18 20 21 21 20 20 21 18 20 11 8 9 11 11 12 11 11
2 3 3 3 4 4 4 5 5 6 6 7 8 9 10 12 12 12 12 13 14 14 15 15 15 16 17 19 20 18 18 22 21 22 20 12 7 11 12 14 15 15 14
1 0 1 3 2 2 3 4 4 5 6 8 9 10 11 12 13 13 13 14 16 16 17 17 16 15 16 18 18 14 16 17 20 21 19 14 14 14 16 17 19 19 21
4 3 2 1 1 2 2 3 3 4 6 8 10 11 12 13 14 14 13 13 15 17 18 17 17 16 16 17 16 16 18 18 17 18 15 16 17 17 18 19 20 21 22
6 4 4 2 1 1 1 3 4 5 7 9 12 14 13 12 13 12 12 12 14 16 17 19 19 19 19 20 18 19 19 19 19 19 16 18 16 17 18 19 21 22 24
7 6 4 4 3 3 2 3 4 6 9 11 14 15 17 14 13 12 11 12 14 14 16 17 18 19 20 19 19 19 19 20 20 17 16 16 16 17 18 20 21 22 23
8 6 5 4 5 5 3 4 5 7 9 12 14 16 17 16 14 16 14 12 14 16 18 18 17 18 19 19 17 17 18 18 15 17 13 14 16 17 18 19 20 21 22
9 8 5 6 6 6 6 7 7 8 9 11 13 14 15 15 15 15 13 14 16 16 17 17 17 16 18 18 17 17 17 16 16 12 12 13 14 16 18 19 19 21 22
10 8 6 6 7 8 8 8 8 9 9 10 12 13 14 14 15 12 13 14 16 15 16 16 16 16 16 17 17 17 16 13 11 10 11 13 15 16 17 18 20 21 23
9 8 6 6 8 9 10 9 11 12 12 11 12 12 13 13 13 12 14 13 15 14 15 16 16 16 15 16 17 14 14 12 9 10 11 13 16 17 17 17 19 22 23
8 7 6 7 9 10 12 12 14 15 13 13 13 13 12 12 13 11 11 13 13 14 15 16 15 15 17 19 14 12 12 10 9 10 12 14 16 17 19 19 21 22 24
11 9 6 7 8 11 14 16 17 15 17 15 15 16 13 12 12 10 10 12 12 13 14 15 15 15 15 17 14 12 12 12 14 13 14 16 17 17 18 21 23 24 26
12 11 9 8 8 10 12 14 16 17 17 19 18 16 15 13 12 11 10 12 11 11 12 13 14 13 13 16 15 14 13 15 11 16 16 17 17 17 19 20 23 25 27
11 8 7 7 8 10 11 13 14 16 17 19 17 16 15 14 14 12 11 11 12 12 12 13 13 15 12 13 15 17 16 14 16 17 17 17 17 19 20 22 24 27 28
6 7 5 7 9 10 13 14 13 16 18 18 17 15 14 14 14 12 11 9 10 11 12 13 14 14 13 14 15 15 15 16 17 18 19 19 19 20 20 21 22 25 27
6 6 8 9 11 12 13 14 15 17 20 20 17 16 16 15 14 13 12 11 11 11 11 12 12 13 13 14 14 15 16 17 18 18 20 20 20 20 20 21 24 27 28
Wind_Direction
95 100 91 80 71 71 74 75 77 75 72 66 65 67 63 60 59 58 53 50 46 43 41 37 32 27 24 26 23 22 24 27 33 41 42 44 46 43 35 46 50 53 53
105 98 94 86 76 69 70 75 77 74 75 70 69 69 71 67 62 58 54 50 44 41 37 34 36 33 28 27 26 22 25 29 42 52 53 48 46 38 14 65 64 54 51
100 97 93 87 78 72 72 76 80 79 77 76 71 73 76 70 66 61 57 51 47 42 38 37 36 34 33 30 30 29 31 35 47 63 72 58 54 49 37 53 58 55 53
94 88 84 80 77 75 74 77 79 79 79 72 77 76 74 71 70 66 61 54 49 42 40 36 31 29 26 22 19 13 20 21 17 87 100 54 66 59 53 59 62 64 60
78 82 83 78 78 75 70 71 75 77 76 75 72 79 72 68 68 67 64 55 50 45 40 34 31 24 21 15 6 2 359 15 18 232 189 180 83 67 68 67 65 66 69
69 79 83 77 78 79 76 70 70 74 75 73 74 74 67 65 60 59 56 50 43 42 39 29 33 23 22 16 359 339 313 321 321 328 251 100 78 70 64 66 63 70 78
61 67 74 78 79 77 74 70 71 73 70 67 65 66 61 63 61 57 51 42 37 36 31 20 18 15 9 5 0 347 317 299 285 295 295 53 87 76 71 70 60 63 80
60 59 66 67 71 72 70 70 68 68 67 64 59 56 56 54 56 51 46 38 37 33 19 10 4 0 355 345 345 340 325 298 285 277 290 283 111 77 64 61 59 62 68
46 52 64 64 68 68 70 64 57 61 60 56 53 47 46 46 38 35 30 25 28 25 19 10 356 345 346 348 331 331 328 310 284 271 282 329 83 65 49 47 49 50 59
41 63 76 71 69 62 58 60 56 47 45 48 36 32 32 23 18 16 10 7 1 350 349 350 344 337 333 335 329 311 312 311 310 288 282 326 43 33 36 24 23 19 24
38 67 82 90 75 64 59 58 52 49 47 43 33 27 16 1 19 360 350 347 340 338 335 329 325 319 316 310 310 311 316 320 318 325 320 349 7 9 5 4 359 1 358
29 85 81 99 90 64 49 62 54 44 40 25 18 8 360 356 356 352 347 341 335 331 325 322 322 319 316 314 311 317 320 312 316 315 323 341 357 346 351 349 344 339 341
250 342 115 118 100 58 54 75 59 48 28 10 359 355 351 346 344 344 345 340 330 326 321 319 319 321 319 314 316 325 329 326 321 319 322 339 334 340 344 341 336 331 325
228 234 201 177 150 118 72 73 51 40 12 357 353 350 346 342 339 338 342 340 333 325 320 317 320 320 321 323 321 319 323 330 331 333 338 337 333 333 336 333 330 327 322
224 226 217 213 233 341 82 17 27 8 0 354 347 343 342 345 344 343 342 340 331 325 319 311 309 313 314 315 317 315 317 319 322 323 328 327 333 336 336 335 331 327 322
225 214 223 230 241 304 321 349 352 349 347 343 340 335 338 341 350 355 352 348 340 331 326 319 313 311 311 313 316 317 317 315 315 324 328 336 342 341 338 335 335 334 332
221 211 218 233 257 285 302 331 334 332 334 334 336 335 333 338 346 349 354 354 345 333 324 320 319 318 314 315 318 321 321 322 327 322 337 340 339 340 341 342 342 341 338
216 213 236 264 273 283 295 308 315 321 327 332 336 336 333 338 341 350 352 345 335 331 327 324 322 320 318 317 317 319 322 324 327 345 348 346 346 345 343 345 345 343 340
220 223 248 266 277 288 297 305 310 315 324 329 333 335 335 337 342 357 351 342 336 333 328 324 326 326 323 320 319 320 323 328 343 356 357 354 351 347 347 348 347 346 342
211 218 236 270 283 290 298 303 305 309 316 322 328 332 333 334 342 351 348 345 339 339 332 326 325 329 331 326 322 322 328 343 358 357 353 351 349 348 347 347 347 346 345
205 215 238 261 280 283 290 293 296 299 307 316 323 326 329 331 339 346 347 340 341 337 333 328 324 326 325 323 328 333 339 350 357 353 352 349 346 346 347 348 343 343 342
210 223 240 260 268 278 284 290 294 295 302 310 315 317 321 326 332 341 342 339 338 336 333 331 327 325 327 331 323 328 327 334 340 344 345 344 347 350 347 346 344 342 339
223 220 235 249 270 282 285 286 290 294 298 302 307 311 316 319 324 331 331 333 337 342 338 337 333 330 327 329 331 321 318 314 332 333 338 342 342 345 346 346 345 344 341
221 235 253 266 281 292 294 290 282 283 286 294 299 305 310 313 315 321 326 327 331 332 333 334 335 329 329 322 327 329 330 323 312 315 331 337 340 340 341 341 342 341 340
246 265 270 282 291 295 294 292 288 290 291 290 292 294 301 305 307 310 315 322 327 329 332 332 330 330 332 328 324 325 332 329 323 315 312 322 335 338 341 345 346 346 348
299 296 301 300 297 298 299 300 291 291 292 288 284 284 289 293 296 299 305 309 313 319 322 327 330 332 333 333 333 331 326 321 318 318 314 317 321 330 341 346 347 344 345